Погода в Одинцово

Россия / Московская область     55°40′44″N   37°15′49″E
темп.,
°C
ветер,
м/с
пор.,
м/с
влажн.,
%
обл.,
%
осадки,
мм/ч
давл.,
гПа
погр.,
м
17 апреля, сб
сб1700:00+10в6138452 0.2 1021721
03:00+9в4109079 0.3 1021467
06:00+8всв51088100 0.3 1021415
09:00+9всв4881100 0.3 1022530
12:00+14всв685946 0.1 1021944
15:00+16всв710469 0.1 10201448
18:00+15всв7114959 0.0 10191163
21:00+12всв6135557 0.0 1020941
18 апреля, вс
вс1800:00+9всв6135251 0.0 1020762
03:00+8всв61356100 0.0 1020661
06:00+7всв51160100 0.0 1020756
09:00+6в5971100 1.6 1022790
12:00+5всв5989100 2.9 1023875
15:00+5всв61086100 3.3 1024883
18:00+6в51082100 0.8 1024958
21:00+7в51276100 0.9 10251163
19 апреля, пн
пн1900:00+7всв4972100 0.0 1025966
03:00+6всв3880100 0.1 1025718
06:00+6всв41084100 0.0 1025520
09:00+6всв51080100 0.0 1025855
12:00+8в5971100 0.0 10251110
15:00+8в5969100 0.1 10251257
18:00+7вюв41078100 0.4 10251138
21:00+7в51269100 0.9 10241214
20 апреля, вт
вт2000:00+6в5116491 0.0 10241068
03:00+5в61260100 0.0 1023653
06:00+4в61268100 0.0 1022644
09:00+6в6116591 0.0 1021818
12:00+7в71263100 0.0 10181093
15:00+8в81564100 0.0 10141179
18:00+7в91980100 1.7 10101476
21:00+7в102287100 8.6 10071596
21 апреля, ср
ср2100:00+7вюв81990100 8.1 10041375
03:00+7вюв71692100 11.4 10021006
06:00+8вюв71490100 0.8 10001276
09:00+8ююв71383100 2.5 10011217
12:00+5ююз6128580 1.1 1004803
15:00+7ю61477100 1.1 10071366
18:00+9ю6116897 0.1 10091488
21:00+7ю6127622 0.2 1011918